Weather History for KCMA - August, 2012

Change the Weather History Date:

Monday, August 20, 2012

  Actual Average Record
Temperature  
Mean Temperature 71 °F 68 °F  
Max Temperature 78 °F 77 °F 83 °F (1986)
Min Temperature 63 °F 59 °F 50 °F (1953)
Degree Days  
Heating Degree Days 0 0  
Month to date heating degree days 0 0  
Since 1 June heating degree days 73 53  
Since 1 July heating degree days 33 10  
Cooling Degree Days 6 3  
Month to date cooling degree days 97 60  
Year to date cooling degree days 131 185  
Since 1 June cooling degree days 116 154  
Growing Degree Days 20 (Base 50)    
Moisture  
Dew Point 61 °F    
Average Humidity 76    
Maximum Humidity 87    
Minimum Humidity 64    
Precipitation  
Precipitation 0.00 in 0.00 in 0.09 in (1983)
Month to date precipitation 0.03 0.02  
Year to date precipitation 5.71 11.02  
Since 1 July precipitation 0.03 0.04  
Sea Level Pressure  
Sea Level Pressure 29.89 in    
Wind  
Wind Speed 5 mph (WSW)    
Max Wind Speed 13 mph    
Max Gust Speed 20 mph    
Visibility 10 miles    
Events      
T = Trace of Precipitation, MM = Missing Value Source: NWS Daily Summary

Daily Weather History Graph

Daily Weather History Graph

Search for Another Location

Airport or City:

Trip Planner

Search our weather history database for the weather conditions in past years. The results will help you decide how hot, cold, wet, or windy it might be!

Date:

Astronomy

Aug. 20, 2012 Rise Set
Actual Time 6:21 AM PDT 7:36 PM PDT
Civil Twilight 5:55 AM PDT 8:03 PM PDT
Nautical Twilight 5:24 AM PDT 8:34 PM PDT
Astronomical Twilight 4:51 AM PDT 9:06 PM PDT
Moon 9:36 AM PDT (8/20) 9:17 PM PDT (8/20)
Length of Visible Light 14h 07m
Length of Day
13h 15m
Waxing Crescent, 12% of the Moon is Illuminated
Aug 20
Waxing Crescent
Aug 24
First Quarter
Aug 31
Full
Sep 8
Last Quarter
Sep 15
New

Hourly Weather History & Observations

Time (PDT) Temp. Dew Point Humidity Pressure Visibility Wind Dir Wind Speed Gust Speed Precip Events Conditions
12:55 AM 64.0 °F 59.0 °F 84% 29.88 in 9.0 mi NNE 3.5 mph - N/A   Clear
1:55 AM 64.0 °F 59.0 °F 84% 29.88 in 9.0 mi Calm Calm - N/A   Clear
2:55 AM 64.0 °F 60.1 °F 87% 29.88 in 10.0 mi Calm Calm - N/A   Clear
3:55 AM 64.9 °F 60.1 °F 84% 29.88 in 10.0 mi Calm Calm - N/A   Clear
4:55 AM 64.0 °F 59.0 °F 84% 29.88 in 9.0 mi Calm Calm - N/A   Clear
5:55 AM 63.0 °F 57.9 °F 84% 29.89 in 10.0 mi Calm Calm - N/A   Clear
6:55 AM 63.0 °F 57.9 °F 84% 29.91 in 8.0 mi Calm Calm - N/A   Clear
7:55 AM 66.0 °F 60.1 °F 81% 29.92 in 8.0 mi Calm Calm - N/A   Clear
8:55 AM 70.0 °F 61.0 °F 73% 29.91 in 9.0 mi WNW 4.6 mph - N/A   Clear
9:55 AM 73.9 °F 61.0 °F 64% 29.91 in 9.0 mi SW 5.8 mph - N/A   Clear
10:55 AM 77.0 °F 64.0 °F 64% 29.91 in 10.0 mi WSW 9.2 mph - N/A   Clear
11:55 AM 78.1 °F 66.0 °F 66% 29.91 in 9.0 mi SW 10.4 mph - N/A   Clear
12:55 PM 77.0 °F 66.9 °F 71% 29.90 in 10.0 mi SW 11.5 mph - N/A   Clear
1:55 PM 77.0 °F 66.0 °F 69% 29.89 in 10.0 mi SW 12.7 mph - N/A   Clear
2:55 PM 77.0 °F 64.9 °F 66% 29.87 in 10.0 mi West 6.9 mph - N/A   Clear
3:55 PM 75.9 °F 64.0 °F 67% 29.86 in 10.0 mi West 10.4 mph - N/A   Clear
4:55 PM 75.0 °F 62.1 °F 64% 29.86 in 10.0 mi West 9.2 mph - N/A   Clear
5:55 PM 73.0 °F 61.0 °F 66% 29.85 in 10.0 mi West 8.1 mph - N/A   Clear
6:55 PM 71.1 °F 60.1 °F 68% 29.86 in 10.0 mi West 6.9 mph - N/A   Clear
7:55 PM 68.0 °F 61.0 °F 78% 29.87 in 10.0 mi WSW 4.6 mph - N/A   Clear
8:55 PM 69.1 °F 61.0 °F 75% 29.89 in 10.0 mi WSW 3.5 mph - N/A   Clear
9:55 PM 66.9 °F 60.1 °F 79% 29.91 in 10.0 mi Calm Calm - N/A   Clear
10:55 PM 66.0 °F 61.0 °F 84% 29.91 in 10.0 mi WNW 4.6 mph - N/A   Clear
11:55 PM 64.9 °F 61.0 °F 87% 29.91 in 10.0 mi Calm Calm - N/A   Clear